Location: Washington
(38.8950°N, 77.0367°W)
Time: 19:25:59
(UTC-05:00)

N. Korean satellite - Visible Passes

Search period start: 22 January 2017 00:00
Search period end: 01 February 2017 00:00
Orbit: 463 x 519 km, 97.2° (Epoch: 21 January)

Date Brightness Start Highest point End Pass type
(mag) Time Alt. Az. Time Alt. Az. Time Alt. Az.
22 Jan 7.7 17:50:24 10° ESE 17:53:12 22° ENE 17:56:02 10° NNE visible
22 Jan 9.4 19:24:07 10° SW 19:26:43 19° W 19:29:21 10° NW visible
23 Jan 8.6 06:52:03 10° NNE 06:55:34 36° E 06:59:05 10° SSE visible
23 Jan 8.1 19:01:01 10° SSW 19:04:18 37° W 19:07:40 10° NNW visible
24 Jan 9.8 06:30:22 10° NE 06:33:10 19° E 06:35:57 10° SE visible
24 Jan 6.6 18:38:25 10° S 18:41:57 79° W 18:45:35 10° NNW visible
25 Jan 10.5 06:10:07 10° E 06:10:41 10° E 06:11:17 10° E visible
25 Jan 6.7 18:16:15 10° SSE 18:19:41 49° ENE 18:23:13 10° N visible
26 Jan 7.6 17:54:30 10° SE 17:57:30 25° ENE 18:00:32 10° NNE visible
26 Jan 9.6 19:28:40 10° SW 19:31:04 17° W 19:33:31 10° NW visible
27 Jan 8.4 19:05:24 10° SSW 19:08:38 32° W 19:11:57 10° NNW visible
28 Jan 9.7 06:34:32 10° NE 06:37:32 22° E 06:40:30 10° SSE visible
28 Jan 6.9 18:42:42 10° S 18:46:16 67° W 18:49:55 10° NNW visible
29 Jan 10.3 06:13:36 10° ENE 06:15:04 12° E 06:16:31 10° ESE visible
29 Jan 6.6 18:20:26 10° SSE 18:23:57 58° ENE 18:27:35 10° N visible
30 Jan 7.4 17:58:34 10° SE 18:01:43 29° ENE 18:04:57 10° N visible
30 Jan 9.8 19:33:12 10° SW 19:35:23 15° W 19:37:35 10° NW visible
31 Jan 8.7 19:09:44 10° SSW 19:12:55 28° W 19:16:09 10° NW visible
